Left ArrowRight Arrow

Hourly Observations for November 30, 2019

Temp ( °F °C ) Dew Point ( °F °C ) Humidity (%) Winds ( mph kmh ) Pressure ( in mb ) Visibility ( mi km ) Precip ( " mm )
12:53 am 00:53 Clear 40 4.4 31 -0.6 70 70 E 9 15 30.06 1018 10 16 0.00 0.00
1:53 am 01:53 Clear with Light Rain 39 3.9 30 -1.1 70 70 E 9 15 30.07 1018 10 16 0.00 0.00
2:53 am 02:53 Clear 38 3.3 28 -2.2 68 68 ESE 8 13 30.08 1019 10 16 0.00 0.00
3:53 am 03:53 Clear 37 2.8 28 -2.2 70 70 ESE 6 9 30.09 1019 10 16 0.00 0.00
4:53 am 04:53 Clear 37 2.8 28 -2.2 70 70 ESE 7 11 30.10 1019 10 16 0.00 0.00
5:53 am 05:53 Clear 38 3.3 27 -2.8 65 65 ESE 8 13 30.10 1019 10 16 0.00 0.00
6:53 am 06:53 Clear 39 3.9 27 -2.8 62 62 ESE 10 17 30.10 1019 10 16 0.00 0.00
7:53 am 07:53 Sunny 42 5.6 28 -2.2 58 58 E 7 11 30.13 1020 10 16 0.00 0.00
8:53 am 08:53 Mostly Cloudy 45 7.2 29 -1.7 54 54 ESE 10 17 30.14 1021 10 16 0.00 0.00
10:53 am 10:53 Cloudy 49 9.4 31 -0.6 50 50 ESE 12 19 30.13 1020 10 16 0.00 0.00
11:53 am 11:53 Cloudy 50 10 32 0 50 50 SE 10 17 30.10 1019 10 16 0.00 0.00
12:53 pm 12:53 Cloudy 50 10 32 0 50 50 SSE 8 13 30.12 1020 10 16 0.00 0.00
1:53 pm 13:53 Cloudy with Light Rain 48 8.9 38 3.3 68 68 SE 12 19 30.12 1020 10 16 0.01 0.25
2:53 pm 14:53 Cloudy with Light Rain 47 8.3 39 3.9 74 74 SE 13 20 30.12 1020 9 14 0.00 0.00
3:53 pm 15:53 Cloudy with Light Rain 47 8.3 40 4.4 77 77 SSE 14 22 30.10 1019 10 16 0.00 0.00
4:53 pm 16:53 Mostly Clear with Light Rain 46 7.8 40 4.4 79 79 SE 16 26 30.05 1018 10 16 0.00 0.00
5:53 pm 17:53 Mostly Cloudy 47 8.3 38 3.3 71 71 SE 10 17 30.07 1018 10 16 0.00 0.00
6:53 pm 18:53 Cloudy 47 8.3 38 3.3 71 71 SE 12 19 30.06 1018 10 16 0.00 0.00
7:53 pm 19:53 Cloudy with Light Rain 46 7.8 40 4.4 79 79 ESE 13 20 30.05 1018 9 14 0.00 0.00
8:53 pm 20:53 Cloudy with Rain 46 7.8 40 4.4 79 79 ESE 8 13 30.07 1018 7 11 0.01 0.25
9:53 pm 21:53 Cloudy with Rain 45 7.2 41 5 86 86 ESE 10 17 30.06 1018 7 11 0.07 1.78
10:53 pm 22:53 Cloudy with Rain 46 7.8 41 5 83 83 ESE 16 26 30.06 1018 6 10 0.10 2.54
11:53 pm 23:53 Cloudy with Rain 45 7.2 42 5.6 90 90 SE 12 19 30.05 1018 5 8 0.07 1.78

Powered by Vaisala Xweather